Change the Weather History Date:

Sunday, February 9, 2014

  Actual Average (KABY) Record (KABY)
Temperature  
Mean Temperature 50 °F 51 °F  
Max Temperature 64 °F 63 °F 83 °F (1957)
Min Temperature 35 °F 40 °F 17 °F (1933)
Degree Days  
Heating Degree Days 16 14  
Month to date heating degree days 129  
Since 1 July heating degree days 1333  
Cooling Degree Days 0 0  
Month to date cooling degree days 0  
Year to date cooling degree days 4  
Moisture  
Dew Point 40 °F    
Average Humidity 76    
Maximum Humidity 100    
Minimum Humidity 40    
Precipitation  
Precipitation 0.00 in - 0.81 in (2005)
Sea Level Pressure  
Sea Level Pressure 30.13 in    
Wind  
Wind Speed 2 mph (West)    
Max Wind Speed 10 mph    
Max Gust Speed -    
Visibility 9 miles    
Events      
T = Trace of Precipitation, MM = Missing Value Source: NWS Daily Summary

Daily Weather History Graph

Daily Weather History Graph

Search for Another Location

Airport or City:

Trip Planner

Search our weather history database for the weather conditions in past years. The results will help you decide how hot, cold, wet, or windy it might be!

Date:

Astronomy

Feb. 09, 2014 Rise Set
Actual Time 7:24 AM EST 6:17 PM EST
Civil Twilight 6:59 AM EST 6:43 PM EST
Nautical Twilight 6:30 AM EST 7:12 PM EST
Astronomical Twilight 6:01 AM EST 7:40 PM EST
Moon 2:03 PM EST (2/9) 3:22 AM EST (2/9)
Length of Visible Light 11h 43m
Length of Day
10h 53m
Waxing Gibbous, 77% of the Moon is Illuminated
Feb 9
Waxing Gibbous
Feb 14
Full
Feb 22
Last Quarter
Mar 1
New
Mar 8
First Quarter

Hourly Weather History & Observations

Time (EST) Temp. Windchill Dew Point Humidity Pressure Visibility Wind Dir Wind Speed Gust Speed Precip Events Conditions
12:15 AM 42.8 °F - 41.0 °F 93% 30.17 in 10.0 mi Calm Calm - N/A   Clear
12:35 AM 41.0 °F - 41.0 °F 100% 30.16 in 10.0 mi Calm Calm - N/A   Clear
12:55 AM 39.2 °F - 39.2 °F 100% 30.15 in 5.0 mi Calm Calm - N/A   Clear
1:15 AM 41.0 °F - 41.0 °F 100% 30.15 in 7.0 mi Calm Calm - N/A   Clear
1:35 AM 39.2 °F - 39.2 °F 100% 30.15 in 10.0 mi Calm Calm - N/A   Clear
1:55 AM 39.2 °F - 39.2 °F 100% 30.14 in 7.0 mi Calm Calm - N/A   Clear
2:15 AM 39.2 °F - 39.2 °F 100% 30.13 in 7.0 mi Calm Calm - N/A   Clear
2:35 AM 39.2 °F - 39.2 °F 100% 30.13 in 5.0 mi Calm Calm - N/A   Clear
2:55 AM 37.4 °F - 37.4 °F 100% 30.13 in 5.0 mi Calm Calm - N/A   Clear
3:15 AM 37.4 °F - 37.4 °F 100% 30.13 in 10.0 mi Calm Calm - N/A   Clear
3:35 AM 39.2 °F - 39.2 °F 100% 30.13 in 10.0 mi Calm Calm - N/A   Clear
3:55 AM 35.6 °F - 35.6 °F 100% 30.13 in 5.0 mi Calm Calm - N/A   Clear
4:15 AM 37.4 °F 34.9 °F 37.4 °F 100% 30.13 in 5.0 mi North 3.5 mph - N/A   Clear
4:35 AM 37.4 °F 34.9 °F 37.4 °F 100% 30.12 in 7.0 mi NE 3.5 mph - N/A   Clear
4:55 AM 37.4 °F - 37.4 °F 100% 30.13 in 10.0 mi Calm Calm - N/A   Clear
5:15 AM 37.4 °F - 37.4 °F 100% 30.13 in 10.0 mi Calm Calm - N/A   Clear
5:35 AM 35.6 °F 32.8 °F 35.6 °F 100% 30.14 in 10.0 mi North 3.5 mph - N/A   Scattered Clouds
5:55 AM 41.0 °F - 39.2 °F 93% 30.14 in 10.0 mi Calm Calm - N/A   Overcast
6:15 AM 39.2 °F - 37.4 °F 93% 30.14 in 10.0 mi Calm Calm - N/A   Mostly Cloudy
6:35 AM 39.2 °F - 37.4 °F 93% 30.15 in 10.0 mi Calm Calm - N/A   Scattered Clouds
6:55 AM 37.4 °F - 37.4 °F 100% 30.16 in 5.0 mi Calm Calm - N/A   Clear
7:15 AM 37.4 °F - 37.4 °F 100% 30.16 in 5.0 mi Calm Calm - N/A   Clear
7:35 AM 35.6 °F - 35.6 °F 100% 30.16 in 4.0 mi Calm Calm - N/A   Clear
7:55 AM 37.4 °F - 37.4 °F 100% 30.16 in 7.0 mi Calm Calm - N/A   Clear
8:15 AM 39.2 °F 37.0 °F 39.2 °F 100% 30.18 in 7.0 mi North 3.5 mph - N/A   Clear
8:35 AM 42.8 °F 41.1 °F 41.0 °F 93% 30.20 in 10.0 mi North 3.5 mph - N/A   Scattered Clouds
8:55 AM 44.6 °F 42.2 °F 41.0 °F 87% 30.20 in 10.0 mi NNE 4.6 mph - N/A   Overcast
9:15 AM 44.6 °F - 39.2 °F 81% 30.20 in 10.0 mi Calm Calm - N/A   Overcast
9:35 AM 46.4 °F - 39.2 °F 76% 30.21 in 10.0 mi Calm Calm - N/A   Overcast
9:55 AM 50.0 °F - 41.0 °F 71% 30.21 in 10.0 mi Calm Calm - N/A   Scattered Clouds
10:15 AM 51.8 °F - 41.0 °F 67% 30.21 in 10.0 mi Calm Calm - N/A   Clear
10:35 AM 55.4 °F - 42.8 °F 63% 30.21 in 10.0 mi Calm Calm - N/A   Clear
10:55 AM 57.2 °F - 41.0 °F 55% 30.21 in 10.0 mi WSW 3.5 mph - N/A   Clear
11:15 AM 59.0 °F - 39.2 °F 48% 30.20 in 10.0 mi WSW 4.6 mph - N/A   Clear
11:35 AM 59.0 °F - 41.0 °F 51% 30.18 in 10.0 mi NW 6.9 mph - N/A   Clear
11:55 AM 59.0 °F - 41.0 °F 51% 30.17 in 10.0 mi NW 8.1 mph - N/A   Clear
12:15 PM 60.8 °F - 41.0 °F 48% 30.16 in 10.0 mi West 9.2 mph - N/A   Clear
12:35 PM 60.8 °F - 41.0 °F 48% 30.16 in 10.0 mi Calm Calm - N/A   Clear
12:55 PM 60.8 °F - 41.0 °F 48% 30.15 in 10.0 mi NW 9.2 mph - N/A   Clear
1:15 PM 62.6 °F - 41.0 °F 45% 30.13 in 10.0 mi West 8.1 mph - N/A   Scattered Clouds
1:35 PM 62.6 °F - 41.0 °F 45% 30.12 in 10.0 mi WSW 6.9 mph - N/A   Scattered Clouds
1:55 PM 62.6 °F - 41.0 °F 45% 30.10 in 10.0 mi SW 5.8 mph - N/A   Clear
2:15 PM 62.6 °F - 41.0 °F 45% 30.09 in 10.0 mi WSW 6.9 mph - N/A   Clear
2:35 PM 64.4 °F - 41.0 °F 42% 30.08 in 10.0 mi WSW 6.9 mph - N/A   Clear
2:55 PM 62.6 °F - 41.0 °F 45% 30.08 in 10.0 mi WNW 5.8 mph - N/A   Clear
3:15 PM 64.4 °F - 42.8 °F 45% 30.07 in 10.0 mi WSW 8.1 mph - N/A   Clear
3:35 PM 64.4 °F - 39.2 °F 40% 30.07 in 10.0 mi West 10.4 mph - N/A   Clear
3:55 PM 64.4 °F - 41.0 °F 42% 30.07 in 10.0 mi WSW 4.6 mph - N/A   Clear
4:15 PM 64.4 °F - 41.0 °F 42% 30.06 in 10.0 mi West 8.1 mph - N/A   Clear
4:35 PM 64.4 °F - 41.0 °F 42% 30.06 in 10.0 mi West 4.6 mph - N/A   Clear
4:55 PM 64.4 °F - 41.0 °F 42% 30.06 in 10.0 mi SW 6.9 mph - N/A   Clear
5:15 PM 62.6 °F - 41.0 °F 45% 30.06 in 10.0 mi WSW 6.9 mph - N/A   Clear
5:35 PM 62.6 °F - 41.0 °F 45% 30.08 in 10.0 mi West 5.8 mph - N/A   Clear
5:55 PM 62.6 °F - 41.0 °F 45% 30.08 in 10.0 mi WSW 5.8 mph - N/A   Clear
6:15 PM 59.0 °F - 42.8 °F 55% 30.09 in 10.0 mi WSW 3.5 mph - N/A   Clear
6:35 PM 59.0 °F - 42.8 °F 55% 30.09 in 10.0 mi SW 3.5 mph - N/A   Clear
6:55 PM 59.0 °F - 42.8 °F 55% 30.10 in 10.0 mi WSW 3.5 mph - N/A   Clear
7:15 PM 57.2 °F - 42.8 °F 59% 30.10 in 10.0 mi Calm Calm - N/A   Clear
7:35 PM 51.8 °F - 42.8 °F 71% 30.10 in 10.0 mi Calm Calm - N/A   Clear
7:55 PM 51.8 °F - 42.8 °F 71% 30.11 in 10.0 mi Calm Calm - N/A   Clear
8:15 PM 50.0 °F - 42.8 °F 76% 30.11 in 10.0 mi Calm Calm - N/A   Clear
8:35 PM 50.0 °F - 44.6 °F 82% 30.12 in 10.0 mi Calm Calm - N/A   Clear
8:55 PM 46.4 °F - 42.8 °F 87% 30.11 in 10.0 mi Calm Calm - N/A   Clear
9:15 PM 46.4 °F - 42.8 °F 87% 30.10 in 10.0 mi Calm Calm - N/A   Clear
9:35 PM 46.4 °F - 42.8 °F 87% 30.11 in 10.0 mi Calm Calm - N/A   Clear
9:55 PM 44.6 °F - 41.0 °F 87% 30.10 in 10.0 mi Calm Calm - N/A   Clear
10:15 PM 44.6 °F - 42.8 °F 93% 30.10 in 10.0 mi Calm Calm - N/A   Clear
10:35 PM 44.6 °F - 42.8 °F 93% 30.11 in 10.0 mi Calm Calm - N/A   Clear
10:55 PM 44.6 °F - 41.0 °F 87% 30.11 in 10.0 mi Calm Calm - N/A   Clear
11:15 PM 42.8 °F - 41.0 °F 93% 30.11 in 10.0 mi Calm Calm - N/A   Clear
11:35 PM 42.8 °F - 42.8 °F 100% 30.11 in 10.0 mi Calm Calm - N/A   Clear
11:55 PM 42.8 °F - 42.8 °F 100% 30.10 in 10.0 mi Calm Calm - N/A   Clear